User: anonymous   Login
Location: Friaudour
(46.0460°N, 1.2873°E)
Time: 14:07:22
(UTC+00:00)
Language:

Cosmos 1908 Rocket - Orbit

View from above orbital plane
View from above orbital plane
View from above satellite
View from above satellite

Ground track
Ground track

The orbit data is extracted from the following two-line orbital elements,

1 18749U 88001B   20262.80876091 +.00000057 +00000-0 +40556-5 0  9994
2 18749 082.5109 270.1493 0018565 355.5924 177.3610 14.83226714745706
Epoch (UTC): 18 September 2020 19:24:36
Eccentricity: 0.0018565
inclination: 82.5109°
perigee height: 606 km
apogee height: 632 km
right ascension of ascending node: 270.1493°
argument of perigee: 355.5924°
revolutions per day: 14.83226714
mean anomaly at epoch: 177.3610°
orbit number at epoch: 74570

The dashed part of the orbit path shows where the satellite is in the earth's shadow,  

DLR